Вернуться в каталог

COSMOS 2489

АктивенВоенныеPO
NORAD 39484·PAYLOAD·🇷🇺 Russia

Запущен Dec 25, 2013 с Plesetsk Cosmodrome

Loading…

Ближайшие Пролёты (ближайшие 24 часа)

TLE

СвежийSource: Space-Track

Эпоха: Sep 14, 2026, 14:33 UTC

1 39484U 13076B   26257.60659082  .00000092  00000-0  59599-3 0  9994
2 39484  82.4847 114.3949 0020326 262.0839  97.7933 12.42882606577058

Отслеживайте COSMOS 2489 в реальном времени с AllMySat

Download on the App Store